Météo par heure à Alimkina

Ce jour, 13 Mai, Jeudi

Heure Température Précipitation Vent Pression Humidité
00:00 +4°C° 0 mm 3 m/s 743 mmHg 95%
01:00 +4°C° 0 mm 3 m/s 743 mmHg 95%
02:00 +4°C° 0 mm 3 m/s 743 mmHg 95%
03:00 +5°C° 0 mm 4 m/s 743 mmHg 94%
04:00 +6°C° 0 mm 4 m/s 743 mmHg 94%
05:00 +6°C° 0 mm 5 m/s 743 mmHg 93%
06:00 +8°C° 0 mm 5 m/s 743 mmHg 90%
07:00 +9°C° 0 mm 6 m/s 743 mmHg 86%
08:00 +10°C° 0 mm 6 m/s 743 mmHg 83%
09:00 +10°C° 1.2 mm 5 m/s 742 mmHg 86%
10:00 +10°C° 1.2 mm 4 m/s 742 mmHg 90%
11:00 +10°C° 1.2 mm 4 m/s 742 mmHg 93%
12:00 +11°C° 0.3 mm 4 m/s 742 mmHg 86%
13:00 +13°C° 0.3 mm 5 m/s 742 mmHg 80%
14:00 +14°C° 0.3 mm 6 m/s 741 mmHg 73%
15:00 +14°C° 0.2 mm 5 m/s 741 mmHg 75%
16:00 +14°C° 0.2 mm 5 m/s 741 mmHg 76%
17:00 +14°C° 0.2 mm 4 m/s 741 mmHg 77%
18:00 +13°C° 0 mm 3 m/s 741 mmHg 82%
19:00 +12°C° 0 mm 3 m/s 741 mmHg 86%
20:00 +10°C° 0 mm 2 m/s 741 mmHg 90%
21:00 +10°C° 0 mm 2 m/s 742 mmHg 91%
22:00 +10°C° 0 mm 2 m/s 742 mmHg 92%
23:00 +9°C° 0 mm 2 m/s 742 mmHg 93%

Demain, 14 Mai, Vendredi

Heure Température Précipitation Vent Pression Humidité
00:00 +9°C° 0 mm 2 m/s 742 mmHg 93%
01:00 +9°C° 0 mm 2 m/s 742 mmHg 93%
02:00 +9°C° 0 mm 2 m/s 742 mmHg 93%
03:00 +9°C° 0 mm 2 m/s 742 mmHg 93%
04:00 +10°C° 0 mm 2 m/s 742 mmHg 92%
05:00 +10°C° 0 mm 2 m/s 742 mmHg 92%
06:00 +12°C° 0 mm 3 m/s 742 mmHg 88%
07:00 +13°C° 0 mm 3 m/s 742 mmHg 85%
08:00 +15°C° 0 mm 4 m/s 742 mmHg 81%
09:00 +17°C° 0.3 mm 4 m/s 741 mmHg 79%
10:00 +19°C° 0.3 mm 5 m/s 741 mmHg 76%
11:00 +20°C° 0.3 mm 6 m/s 741 mmHg 73%
12:00 +21°C° 0.8 mm 6 m/s 741 mmHg 73%
13:00 +21°C° 0.8 mm 7 m/s 740 mmHg 72%
14:00 +22°C° 0.8 mm 7 m/s 739 mmHg 71%
15:00 +21°C° 0.9 mm 7 m/s 739 mmHg 73%
16:00 +21°C° 0.9 mm 7 m/s 739 mmHg 75%
17:00 +21°C° 0.9 mm 7 m/s 738 mmHg 78%
18:00 +19°C° 0.2 mm 6 m/s 738 mmHg 82%
19:00 +18°C° 0.2 mm 4 m/s 738 mmHg 87%
20:00 +17°C° 0.2 mm 3 m/s 738 mmHg 91%
21:00 +16°C° 0.4 mm 3 m/s 738 mmHg 92%
22:00 +16°C° 0.4 mm 3 m/s 738 mmHg 93%
23:00 +16°C° 0.4 mm 3 m/s 738 mmHg 93%

Après-demain, 15 Mai, Samedi

Heure Température Précipitation Vent Pression Humidité
00:00 +14°C° 0.3 mm 3 m/s 737 mmHg 94%
01:00 +14°C° 0.3 mm 3 m/s 737 mmHg 94%
02:00 +14°C° 0.3 mm 3 m/s 737 mmHg 95%
03:00 +14°C° 0 mm 3 m/s 737 mmHg 95%
04:00 +14°C° 0 mm 3 m/s 737 mmHg 96%
05:00 +14°C° 0 mm 3 m/s 737 mmHg 96%
06:00 +16°C° 0 mm 3 m/s 737 mmHg 91%
07:00 +17°C° 0 mm 4 m/s 737 mmHg 85%
08:00 +19°C° 0 mm 5 m/s 738 mmHg 80%
09:00 +19°C° 0 mm 5 m/s 738 mmHg 75%
10:00 +20°C° 0 mm 5 m/s 738 mmHg 70%
11:00 +20°C° 0 mm 6 m/s 739 mmHg 65%
12:00 +21°C° 0 mm 6 m/s 739 mmHg 63%
13:00 +21°C° 0 mm 5 m/s 739 mmHg 60%
14:00 +21°C° 0 mm 5 m/s 739 mmHg 58%
15:00 +21°C° 0.1 mm 5 m/s 739 mmHg 63%
16:00 +20°C° 0.1 mm 5 m/s 739 mmHg 68%
17:00 +19°C° 0.1 mm 4 m/s 739 mmHg 72%
18:00 +18°C° 0 mm 4 m/s 739 mmHg 78%
19:00 +16°C° 0 mm 3 m/s 739 mmHg 84%
20:00 +15°C° 0 mm 2 m/s 739 mmHg 90%
21:00 +13°C° 0 mm 3 m/s 739 mmHg 91%
22:00 +13°C° 0 mm 3 m/s 739 mmHg 92%
23:00 +13°C° 0 mm 3 m/s 739 mmHg 93%

16 Mai, Dimanche

Heure Température Précipitation Vent Pression Humidité
00:00 +12°C° 0 mm 3 m/s 740 mmHg 93%
01:00 +12°C° 0 mm 3 m/s 740 mmHg 94%
02:00 +11°C° 0 mm 3 m/s 740 mmHg 94%
03:00 +11°C° 0 mm 3 m/s 740 mmHg 94%
04:00 +11°C° 0 mm 3 m/s 740 mmHg 93%
05:00 +11°C° 0 mm 3 m/s 741 mmHg 93%
06:00 +13°C° 0 mm 3 m/s 741 mmHg 87%
07:00 +14°C° 0 mm 4 m/s 741 mmHg 81%
08:00 +15°C° 0 mm 4 m/s 741 mmHg 75%
09:00 +18°C° 0 mm 4 m/s 742 mmHg 70%
10:00 +19°C° 0 mm 3 m/s 742 mmHg 66%
11:00 +20°C° 0 mm 3 m/s 742 mmHg 62%
12:00 +20°C° 0 mm 3 m/s 742 mmHg 60%
13:00 +21°C° 0 mm 3 m/s 742 mmHg 58%
14:00 +21°C° 0 mm 3 m/s 742 mmHg 56%
15:00 +21°C° 0 mm 2 m/s 742 mmHg 59%
16:00 +21°C° 0 mm 2 m/s 741 mmHg 61%
17:00 +22°C° 0 mm 1 m/s 741 mmHg 64%
18:00 +21°C° 0 mm 1 m/s 741 mmHg 68%
19:00 +19°C° 0 mm 1 m/s 741 mmHg 72%
20:00 +16°C° 0 mm 1 m/s 741 mmHg 76%
21:00 +16°C° 0 mm 1 m/s 741 mmHg 78%
22:00 +15°C° 0 mm 2 m/s 741 mmHg 80%
23:00 +15°C° 0 mm 2 m/s 741 mmHg 82%

17 Mai, Lundi

Heure Température Précipitation Vent Pression Humidité
00:00 +14°C° 0 mm 3 m/s 741 mmHg 83%
01:00 +13°C° 0 mm 3 m/s 741 mmHg 84%
02:00 +13°C° 0 mm 3 m/s 741 mmHg 85%
03:00 +13°C° 0 mm 3 m/s 741 mmHg 86%
04:00 +14°C° 0 mm 4 m/s 741 mmHg 87%
05:00 +14°C° 0 mm 4 m/s 741 mmHg 88%
06:00 +16°C° 0 mm 5 m/s 741 mmHg 83%
07:00 +19°C° 0 mm 5 m/s 740 mmHg 79%
08:00 +20°C° 0 mm 6 m/s 740 mmHg 75%
09:00 +22°C° 0 mm 6 m/s 740 mmHg 71%
10:00 +23°C° 0 mm 6 m/s 740 mmHg 67%
11:00 +26°C° 0 mm 6 m/s 740 mmHg 63%
12:00 +26°C° 0 mm 6 m/s 739 mmHg 61%
13:00 +26°C° 0 mm 6 m/s 739 mmHg 59%
14:00 +27°C° 0 mm 6 m/s 739 mmHg 58%
15:00 +26°C° 0 mm 6 m/s 739 mmHg 60%
16:00 +24°C° 0 mm 6 m/s 739 mmHg 63%
17:00 +23°C° 0 mm 6 m/s 738 mmHg 65%
18:00 +22°C° 0 mm 5 m/s 738 mmHg 68%
19:00 +20°C° 0 mm 5 m/s 738 mmHg 72%
20:00 +19°C° 0 mm 5 m/s 738 mmHg 75%
21:00 +19°C° 0 mm 5 m/s 738 mmHg 76%
22:00 +17°C° 0 mm 5 m/s 738 mmHg 77%
23:00 +17°C° 0 mm 5 m/s 737 mmHg 78%

18 Mai, Mardi

Heure Température Précipitation Vent Pression Humidité
00:00 +17°C° 0.1 mm 5 m/s 737 mmHg 79%
01:00 +16°C° 0.1 mm 5 m/s 737 mmHg 80%
02:00 +15°C° 0.1 mm 4 m/s 737 mmHg 81%
03:00 +15°C° 0 mm 4 m/s 737 mmHg 80%
04:00 +15°C° 0 mm 5 m/s 737 mmHg 79%
05:00 +15°C° 0 mm 5 m/s 737 mmHg 77%
06:00 +17°C° 0 mm 5 m/s 737 mmHg 73%
07:00 +19°C° 0 mm 5 m/s 737 mmHg 69%
08:00 +21°C° 0 mm 6 m/s 738 mmHg 65%
09:00 +22°C° 0 mm 6 m/s 738 mmHg 63%
10:00 +23°C° 0 mm 6 m/s 738 mmHg 62%
11:00 +24°C° 0 mm 6 m/s 738 mmHg 60%
12:00 +23°C° 0.4 mm 5 m/s 739 mmHg 64%
13:00 +23°C° 0.4 mm 5 m/s 739 mmHg 67%
14:00 +23°C° 0.4 mm 5 m/s 739 mmHg 70%
15:00 +22°C° 0.7 mm 4 m/s 739 mmHg 76%
16:00 +21°C° 0.7 mm 3 m/s 739 mmHg 81%
17:00 +19°C° 0.7 mm 2 m/s 739 mmHg 86%
18:00 +19°C° 0.1 mm 2 m/s 740 mmHg 88%
19:00 +18°C° 0.1 mm 3 m/s 740 mmHg 90%
20:00 +17°C° 0.1 mm 3 m/s 740 mmHg 91%
21:00 +17°C° 0 mm 3 m/s 741 mmHg 92%
22:00 +16°C° 0 mm 2 m/s 741 mmHg 93%
23:00 +16°C° 0 mm 2 m/s 741 mmHg 93%
Voir plus

Nous avons besoin de votre consentement

Meteoprog et ses fournisseurs de services peuvent stocker et accéder à des données personnelles telles que des cookies, des identifiants d'appareils ou d'autres technologies similaires sur votre appareil et traiter ces données pour personnaliser le contenu et les publicités, ainsi que pour fournir des fonctionnalités de médias sociaux et analyser le trafic.

  • Stocker et/ou accéder à des informations sur votre appareil

    Des cookies, des identifiants d'appareils ou d'autres informations peuvent être stockés ou accessibles sur votre appareil aux fins indiquées ci-dessus.

  • Annonces et contenus personnalisés, mesure des annonces et des contenus, connaissance de l'audience et développement de produits

    Les annonces et le contenu peuvent être personnalisés en fonction d'un profil. D'autres données peuvent être ajoutées pour mieux personnaliser les annonces et le contenu. Les performances des publicités et du contenu peuvent être mesurées. Il est possible d'obtenir des informations sur le public qui a vu les publicités et le contenu. Ces données peuvent être utilisées pour développer ou améliorer l'expérience de l'utilisateur, les systèmes et les logiciels.

En cliquant sur "J'accepte", vous autorisez l'utilisation de cookies, des identifiants d'appareils, des balises web ou d'autres technologies similaires. Vos paramètres peuvent être modifiés dans le navigateur de votre appareil.

Dans certains cas, des intérêts légitimes peuvent être invoqués plutôt qu'un consentement. Vous pouvez en savoir plus à ce sujet dans notre Politique de confidentialité et de cookies.